Showing default

UNICORN-2L, 58727

Orbit data source: Space-Track

UNICORN-2L, 58727 is a payload satellite owned by Alba Orbital (DE) in SSO that was launched on Fri, 01 Dec 2023 UTC via an FALCON 9 launch vehicle from the Air Force Western Test Range (AFWTR). Payload-class satellites include a variety of spacecraft equipped with specific instruments for various scientific and technological missions. These include communications satellites like Starlink; space stations such as the ISS; scientific satellites like the Hubble; Earth observation satellites from companies like Planet Labs, Umbra, and HawkEye 360; GPS; miniature CubeSats for education and research; and military/defense satellites.

Loading next visibility...
Identifier
58727, 2023-185R
Orbit
SSO
Country
Flag of DEDE / GER
Related business
Manufacturer
Alba Orbital
Mission
Operational Commercial Imaging
Bus & Motor
POCKETQUBE 3P, Unknown motor
Mass
~0.75 kg wet, ~0.75 kg dry
Launch date (UTC)
2023-12-01 (3 years ago)
Launch vehicle
FALCON 9
Launch site
Air Force Western Test Range (AFWTR)
Object type
Payload
Rocket body
Debris
Shape & HBR
Box + 2 Pan, 0.2 m
Radar Cross Section
0.016 m², Medium (>0.1 m² and < 1m²)

Expand to show TLE details & history
Last TLE update: 14 hours ago

TLE from 14 hours ago
0 UNICORN-2L
1 58727U 23185R   26263.46828344  .00005343  00000-0  23270-3 0  9998
2 58727  97.5313 337.5018 0011832 345.9592  14.1314 15.22587148149289
Epoch: 2026-09-20T11:14Z
TLE epoch observation values (Epoch: 2026-09-20T11:14:19.689Z)
Latitude
0.00005°
Longitude
169.55772°
Altitude
493.24 km
Speed
7.623 km/s
True Right ascension
22h 30m 00s
True Declination
0° 00' 00"
Sunlit
Object was in full shadow at epoch
Visualization orbit readout
Latitude
Unknown
Longitude
Unknown
Altitude
Unknown
Speed
Unknown
Apparent Right ascension
Unknown
Apparent Declination
Unknown
Sunlit
N/A
Visualization observer readout
Local Sidereal Time
18:01:37
Azimuth
Unknown
Elevation
Unknown
Doppler factor
Unknown
Orbital elements
Apogee altitude
503.14 km
Perigee altitude
486.876 km
Semi-major axis
6,873.145 km
Eccentricity
0.00118
Inclination
97.5313°
RAAN
337.5018°
Arg. of periapsis
345.9592°
True anomaly
14.16455°
Mean anomaly
14.1314°
Eccentric anomaly
14.14797°
Mean motion
3.80899 °/min
Orbital period
94.51 mins
BSTAR
0.0002327
Loading maneuver chart data...
Computing Atmospheric mass density...
Loading historical data...
Loading historical data...
Loading historical data...
Loading historical data...
Loading historical data...
Loading historical data...
Loading historical data...

Documentation

Showing up to 5 results
|